Regional Weather Roundup
Issued by NWS Wilmington, NC

Home | Current Version | Previous Version | Text Only | Print | Product List | Glossary On
Versions: 1 2 3 4 5 6 7 8 9 10 11 12 13 14 15 16 17 18 19 20 21 22 23 24 25 26 27 28 29 30 31 32 33 34 35 36 37 38 39 40 41 42 43 44 45 46 47 48 49 50
679
ASUS42 KILM 290013
RWRILM
RWRILM
REGIONAL HOURLY WEATHER ROUNDUP
NATIONAL WEATHER SERVICE WILMINGTON NC
800 PM EDT SAT MAY 28 2016

NOTE: "FAIR" INDICATES FEW OR NO CLOUDS BELOW 12,000 FEET WITH NO
SIGNIFICANT WEATHER AND/OR OBSTRUCTIONS TO VISIBILITY.

...............WFO WILMINGTON COUNTY WARNING AREA...............

......COASTAL NC AND SC COUNTIES......

CITY           SKY/WX    TMP DP  RH WIND       PRES   REMARKS
WILMINGTON     MOCLDY    76  68  76 E14G20    30.10R
N MYRTLE BEACH RAIN      74  71  91 CALM      30.07S FOG
MYRTLE BEACH   CLOUDY    73  66  78 N6        30.09S

......INLAND NC AND SC COUNTIES.......

CITY           SKY/WX    TMP DP  RH WIND       PRES   REMARKS
LUMBERTON      MOCLDY    75  71  87 CALM      30.10R
ELIZABETHTOWN  PTCLDY    77  73  86 CALM      30.10R
WHITEVILLE     CLOUDY    76  69  78 CALM      30.09S
FLORENCE       LGT RAIN  73  69  87 N3        30.11S
DARLINGTON     LGT RAIN  73  71  93 SE3       30.12S
KINGSTREE      CLOUDY    70  68  94 CALM      30.10S
HARTSVILLE     MOCLDY    72  64  78 E7        30.11S
BENNETTSVILLE  LGT RAIN  75  72  88 S5        30.11S
CONWAY         LGT RAIN  70  70 100 CALM      30.09S
GEORGETOWN     LGT RAIN  70  68  94 N6        30.08
MARION         LGT RAIN  72  70  94 N3        30.10S

....................REST OF NORTH CAROLINA......................

.........EASTERN NC.........

CITY           SKY/WX    TMP DP  RH WIND       PRES   REMARKS
CAPE HATTERAS  MOCLDY    75  69  81 E5        30.13F
JACKSONVILLE   PTCLDY    78  68  71 E3        30.11R
MOREHEAD CITY  PTCLDY    77  71  82 E8        30.11S
KENANSVILLE    PTCLDY    76  61  57 CALM      30.12R
NEW BERN       CLEAR     77  68  73 E8        30.13S
ELIZABETH CITY CLEAR     74  66  76 E8        30.15S

.........CENTRAL NC.........

CITY           SKY/WX    TMP DP  RH WIND       PRES   REMARKS
RALEIGH DURHAM MOCLDY    80  61  52 E6        30.12R
ROCKY MOUNT    MOCLDY    81  66  60 VRB3      30.12R
ROANOKE RAPIDS NOT AVBL
FAYETTEVILLE   CLOUDY    80  66  62 SE6       30.10R
HOFFMAN        CLOUDY    78  65  64 SE7       30.11R

.........WESTERN NC.........

CITY           SKY/WX    TMP DP  RH WIND       PRES   REMARKS
CHARLOTTE      CLOUDY    81  53  37 NE5       30.13S
GREENSBORO     MOCLDY    78  55  44 E5        30.14R
HICKORY        NOT AVBL
BOONE          NOT AVBL
ASHEVILLE      NOT AVBL

.....................REST OF SOUTH CAROLINA.....................

.........EASTERN SC.........

CITY           SKY/WX    TMP DP  RH WIND       PRES   REMARKS
CHARLESTON     RAIN      70  67  90 N14       30.06F FOG
BEAUFORT MCAS  RAIN      70  68  93 NE15      30.05F FOG
HILTON HEAD    RAIN      70  68  94 N12G22    30.06S

.........CENTRAL SC.........

CITY           SKY/WX    TMP DP  RH WIND       PRES   REMARKS
COLUMBIA       LGT RAIN  73  68  84 E3        30.11S
ORANGEBURG     LGT RAIN  70  66  87 E3        30.11S
SUMTER SHAW    LGT RAIN  72  68  88 SE6       30.09S

.........WESTERN SC.........

CITY           SKY/WX    TMP DP  RH WIND       PRES   REMARKS
GREENVILLE     NOT AVBL
ROCK HILL      CLOUDY    75  64  68 CALM      30.13S
ANDERSON       CLOUDY    77  64  64 E7        30.12R
CLEMSON        NOT AVBL
GREENWOOD      CLOUDY    76  67  73 CALM      30.13S


...................COASTAL AND OFFSHORE REPORTS..................

................LOCAL PIERS AND NC RESERVE................


STATION/POSITION TIME  SKY/WX   TEMP    WIND        PRES    VSBY
                                AIR SEA DIR/SP/G
                 (UTC)          (F)     (DEG/KT/KT) (MB)    (MI)
JOHNY MRCER PIER 2300                    50/ 15/ 17   N/A
NC RESRV MASNBRO NOT AVBL
OCEAN CREST PIER NOT AVBL
SPRINGMAID  PIER 2300                    10/ 10/ 12   N/A


................COASTAL AND OFFSHORE BUOYS................


STATION/POSITION TIME  SKY/WX   TEMP    WIND        PRES    VSBY
                                AIR SEA DIR/SP/G
                 (UTC)          (F)     (DEG/KT/KT) (MB)    (MI)
DIMNDSHOAL 41025 2350            78 78  130/ 12/ 16 1020.2S
WVE H/P(F/S)=  4/ 8 SWL H/P/D(F/S/D)=  3/130/ 8

CAPE LOOKOUT     0000            75      50/  7/  8 1019.5R
ONSLOW BAY 41036 NOT AVBL
ONSLOW BAY 41064 2308            76 75   80/ 10/ 14 1019.3R
ONSLOW BAY 41159 2325               75                N/A
WVE H/P(F/S)=  6/ 7

5SE WRITBC 41038 2308            76 75   70/ 16/ 19 1019.3F
MASNBO INL 41110 2306               75                N/A
WVE H/P(F/S)=  5/ 7

WILM HARBR 41108 2326               74                N/A
WVE H/P(F/S)=  4/ 8

27SE WRITB 41037 2308            76 74   70/ 14/ 19 1018.2R
FRYING PAN 41013 0000            76 76   80/ 17/ 23 1017.6R
SUNST NRSH 41024 2308            77 76   80/ 14/ 17 1017.9R
CAPRS NRSH 41029 2308            72 76   10/ 19/ 25 1016.6F
EDISTO     41004 2350            76 77   60/ 19/ 23 1015.0F
WVE H/P(F/S)=  9/ 9 SWL H/P/D(F/S/D)=  5/ 9



..........OFFSHORE BUOYS BEYOND 100 NM OFFSHORE...........
.....IN A TRIANGLE---HAT TO BERMUDA TO BAHAMAS TO HAT.....


STATION/POSITION TIME  SKY/WX   TEMP    WIND        PRES    VSBY
                                AIR SEA DIR/SP/G
                 (UTC)          (F)     (DEG/KT/KT) (MB)    (MI)
150E HAT   41001 NOT AVBL
W BERMUDA  41048 2350            76 76  130/ 14/ 16 1022.8R
WVE H/P(F/S)=  4/ 6 SWL H/P/D(F/S/D)=  3/130/ 7

ATLANTIC S 41049 2350            78 78   80/ 14/ 16 1023.3R
WVE H/P(F/S)=  4/ 8 SWL H/P/D(F/S/D)=  3/100/ 8

E BAHAMAS  41046 0000            76 81  110/ 17/ 27 1019.3R
NE BAHAMAS 41047 0000            79 80  120/ 12/ 14 1019.1R
120E CANVRL41010 2320            79 79  250/  4/  6 1015.7R

END




USA.gov is the U.S. government's official web portal to all federal, state and local government web resources and services.